TimeEST,TemperatureF,Dew PointF,Humidity,Sea Level PressureIn,VisibilityMPH,Wind Direction,Wind SpeedMPH,Gust SpeedMPH,PrecipitationIn,Events,Conditions,WindDirDegrees,DateUTC
12:53 AM,28.9,25.0,85,30.39,8.0,Calm,Calm,-,N/A,,Clear,0,2012-11-15 05:53:00
1:53 AM,28.9,25.0,85,30.37,7.0,Calm,Calm,-,N/A,,Clear,0,2012-11-15 06:53:00
2:53 AM,27.0,24.1,89,30.37,7.0,Calm,Calm,-,N/A,,Clear,0,2012-11-15 07:53:00
3:53 AM,28.0,24.1,85,30.37,6.0,Calm,Calm,-,N/A,,Clear,0,2012-11-15 08:53:00
4:53 AM,27.0,24.1,89,30.36,6.0,Calm,Calm,-,N/A,,Clear,0,2012-11-15 09:53:00
5:53 AM,27.0,24.1,89,30.37,5.0,Calm,Calm,-,N/A,,Clear,0,2012-11-15 10:53:00
6:53 AM,27.0,23.0,85,30.38,5.0,Calm,Calm,-,N/A,,Clear,0,2012-11-15 11:53:00
7:53 AM,26.1,24.1,92,30.40,3.0,Calm,Calm,-,N/A,,Clear,0,2012-11-15 12:53:00
8:53 AM,30.0,27.0,88,30.42,4.0,Calm,Calm,-,N/A,,Clear,0,2012-11-15 13:53:00
9:53 AM,33.1,28.0,82,30.41,5.0,Calm,Calm,-,N/A,,Haze,0,2012-11-15 14:53:00
10:53 AM,37.0,28.0,70,30.41,8.0,Calm,Calm,-,N/A,,Clear,0,2012-11-15 15:53:00
11:53 AM,39.9,27.0,60,30.40,10.0,Variable,4.6,-,N/A,,Clear,0,2012-11-15 16:53:00
12:53 PM,43.0,30.0,60,30.38,10.0,Variable,4.6,-,N/A,,Clear,0,2012-11-15 17:53:00
1:53 PM,44.1,28.9,55,30.35,10.0,Calm,Calm,-,N/A,,Clear,0,2012-11-15 18:53:00
2:53 PM,45.0,30.0,56,30.35,10.0,Calm,Calm,-,N/A,,Clear,0,2012-11-15 19:53:00
3:53 PM,45.0,28.0,52,30.34,10.0,Calm,Calm,-,N/A,,Clear,0,2012-11-15 20:53:00
4:53 PM,44.1,30.0,58,30.35,10.0,NNW,5.8,-,N/A,,Clear,330,2012-11-15 21:53:00
5:53 PM,41.0,30.0,65,30.35,10.0,North,4.6,-,N/A,,Clear,350,2012-11-15 22:53:00
6:53 PM,39.0,28.9,67,30.36,9.0,ENE,3.5,-,N/A,,Clear,60,2012-11-15 23:53:00
7:53 PM,37.0,30.0,76,30.38,8.0,North,3.5,-,N/A,,Clear,350,2012-11-16 00:53:00
8:53 PM,33.1,28.0,82,30.38,7.0,Calm,Calm,-,N/A,,Clear,0,2012-11-16 01:53:00
9:53 PM,33.1,28.0,82,30.39,6.0,Calm,Calm,-,N/A,,Haze,0,2012-11-16 02:53:00
10:53 PM,30.9,28.0,89,30.40,5.0,Calm,Calm,-,N/A,,Clear,0,2012-11-16 03:53:00
11:53 PM,30.9,30.0,96,30.40,4.0,Calm,Calm,-,N/A,,Clear,0,2012-11-16 04:53:00